Date String (YYYY-MM-DD hh:mm:ss) UTC,Instrument flags,Ambient pressure (hPa),Sample flow (lpm),Bypass flow (lpm),Sample temperature (°C),Ambient temperature (°C),ASC tube jacket temperature (°C),LED temperature (°C),Box temperature (°C),Sample RH (%),Span deviation,Mass concentration (μg/m³),Mass concentration (μg/m³),Mass concentration (μg/m³)
DateTimeUTC,F1_M11,P_M11,Q1_M11,Q2_M11,T1_M11,T2_M11,T3_M11,T4_M11,T5_M11,U1_M11,ZSPAN_M11,X0_M11,X2_M11,X1_M11
2022-11-14 15:00:00,,0826.6,5.01,0.00,22.7,21.4,00.0,31.6,24.5,09.6,0000.0,0010.77,0004.81,0004.25
2022-11-14 15:01:00,,0826.7,5.00,0.00,22.7,21.4,00.0,31.6,24.5,09.6,0000.0,0010.77,0004.83,0004.26
2022-11-14 15:02:00,,0826.7,5.02,0.00,22.7,21.4,00.0,31.6,24.5,09.8,0000.0,0010.72,0004.87,0004.28
2022-11-14 15:03:00,,0826.7,5.00,0.00,22.7,21.4,00.0,31.6,24.5,09.9,0000.0,0010.57,0004.87,0004.29
2022-11-14 15:04:00,,0826.7,5.01,0.00,22.7,21.4,00.0,31.6,24.5,09.9,0000.0,0009.59,0004.85,0004.29
2022-11-14 15:05:00,,0826.7,5.00,0.00,22.7,21.4,00.0,31.6,24.5,09.9,0000.0,0008.96,0004.84,0004.31
2022-11-14 15:06:00,,0826.6,5.01,0.00,22.6,21.3,00.0,31.6,24.5,09.9,0000.0,0009.07,0004.91,0004.32
2022-11-14 15:07:00,,0826.7,4.98,0.00,22.6,21.3,00.0,31.6,24.4,09.9,0000.0,0009.81,0004.96,0004.32
2022-11-14 15:08:00,,0826.7,5.01,0.00,22.6,21.3,00.0,31.6,24.4,09.8,0000.0,0011.06,0004.99,0004.33
2022-11-14 15:09:00,,0826.7,5.00,0.00,22.6,21.2,00.0,31.6,24.4,09.8,0000.0,0011.13,0004.99,0004.33
2022-11-14 15:10:00,,0826.7,4.99,0.00,22.6,21.2,00.0,31.5,24.4,09.7,0000.0,0011.22,0004.99,0004.32
2022-11-14 15:11:00,,0826.7,5.01,0.00,22.6,21.2,00.0,31.5,24.4,09.7,0000.0,0011.22,0004.97,0004.31
2022-11-14 15:12:00,,0826.7,4.99,0.00,22.6,21.2,00.0,31.5,24.4,09.8,0000.0,0011.61,0004.98,0004.31
2022-11-14 15:13:00,,0826.7,5.00,0.00,22.6,21.2,00.0,31.5,24.4,09.9,0000.0,0011.95,0004.98,0004.30
2022-11-14 15:14:00,,0826.7,5.00,0.00,22.6,21.1,00.0,31.5,24.3,10.1,0000.0,0012.73,0005.03,0004.32
2022-11-14 15:15:00,,0826.7,5.00,0.00,22.5,21.2,00.0,31.5,24.4,10.5,0000.0,0013.30,0005.08,0004.34
2022-11-14 15:16:00,,0826.7,5.00,0.00,22.6,22.1,00.0,31.4,24.5,10.4,0000.0,0014.04,0005.19,0004.38
2022-11-14 15:17:00,,0826.7,4.99,0.00,22.7,23.0,00.0,31.4,24.8,10.4,0000.0,0014.67,0005.30,0004.43
2022-11-14 15:18:00,,0826.8,4.98,0.00,22.8,22.9,00.0,31.5,24.9,10.4,0000.0,0015.88,0005.40,0004.50
2022-11-14 15:19:00,,0826.7,5.01,0.00,22.8,22.6,00.0,31.5,24.8,10.3,0000.6,0015.90,0005.55,0004.58
2022-11-14 15:20:00,,0826.7,5.02,0.00,22.8,22.3,00.0,31.5,24.8,10.3,0004.2,0016.84,0005.80,0004.68
2022-11-14 15:21:00,,0826.7,5.00,0.00,22.8,22.0,00.0,31.5,24.8,10.2,0003.4,0018.57,0005.98,0004.77
2022-11-14 15:22:00,,0826.7,5.00,0.00,22.8,21.9,00.0,31.6,24.7,10.1,0003.1,0019.84,0006.15,0004.86
2022-11-14 15:23:00,,0826.7,4.99,0.00,22.8,21.8,00.0,31.6,24.7,10.1,0003.6,0020.70,0006.30,0004.94
2022-11-14 15:24:00,,0826.7,4.99,0.00,22.8,21.7,00.0,31.6,24.7,09.9,0003.5,0021.71,0006.45,0005.00
2022-11-14 15:25:00,,0826.8,5.00,0.00,22.8,21.7,00.0,31.6,24.6,09.9,0003.2,0022.43,0006.56,0005.04
2022-11-14 15:26:00,,0826.7,5.01,0.00,22.8,21.6,00.0,31.6,24.6,10.0,0003.2,0023.29,0006.67,0005.08
2022-11-14 15:27:00,,0826.7,5.00,0.00,22.8,21.6,00.0,31.6,24.6,10.0,0003.0,0024.55,0006.72,0005.13
2022-11-14 15:28:00,,0826.7,4.98,0.00,22.8,21.5,00.0,31.6,24.6,10.1,0003.0,0024.10,0006.72,0005.16
2022-11-14 15:29:00,,0826.7,5.00,0.00,22.8,21.5,00.0,31.6,24.6,10.0,0002.3,0023.22,0006.66,0005.15
2022-11-14 15:30:00,,0826.8,5.01,0.00,22.7,21.5,00.0,31.6,24.6,09.9,0001.6,0022.61,0006.60,0005.12
2022-11-14 15:31:00,,0826.7,4.98,0.00,22.7,21.4,00.0,31.6,24.6,10.0,0000.6,0022.45,0006.43,0005.07
2022-11-14 15:32:00,,0826.8,4.99,0.00,22.7,21.4,00.0,31.6,24.6,10.0,0001.3,0021.19,0006.32,0005.03
2022-11-14 15:33:00,,0826.9,5.01,0.00,22.7,21.4,00.0,31.6,24.5,10.0,0002.1,0020.92,0006.26,0005.00
2022-11-14 15:34:00,,0826.7,5.01,0.00,22.7,21.4,00.0,31.6,24.5,10.1,0002.3,0020.85,0006.18,0004.97
2022-11-14 15:35:00,,0826.7,4.99,0.00,22.7,21.4,00.0,31.6,24.5,10.0,0002.4,0019.96,0006.13,0004.97
2022-11-14 15:36:00,,0826.8,4.99,0.00,22.7,21.3,00.0,31.6,24.5,10.2,0002.5,0018.75,0006.05,0004.96
2022-11-14 15:37:00,,0826.8,5.01,0.00,22.7,21.3,00.0,31.6,24.5,10.1,0002.5,0017.56,0006.00,0004.93
2022-11-14 15:38:00,,0826.8,5.01,0.00,22.7,21.3,00.0,31.6,24.5,10.1,0002.6,0015.76,0005.90,0004.89
2022-11-14 15:39:00,,0826.8,5.00,0.00,22.7,21.3,00.0,31.6,24.5,10.1,0002.7,0015.62,0005.84,0004.83
2022-11-14 15:40:00,,0826.8,5.00,0.00,22.7,21.3,00.0,31.6,24.5,10.1,0002.4,0014.77,0005.86,0004.81
2022-11-14 15:41:00,,0826.8,4.99,0.00,22.6,21.2,00.0,31.6,24.4,10.0,0000.0,0014.79,0005.81,0004.79
2022-11-14 15:42:00,,0826.8,5.00,0.00,22.6,21.2,00.0,31.6,24.4,10.0,0000.5,0014.47,0005.82,0004.76
2022-11-14 15:43:00,,0826.8,5.00,0.00,22.6,21.2,00.0,31.5,24.4,10.2,0001.2,0014.18,0005.83,0004.74
2022-11-14 15:44:00,,0826.8,5.02,0.00,22.6,21.2,00.0,31.5,24.4,10.2,0001.3,0013.32,0005.81,0004.71
2022-11-14 15:45:00,,0826.8,5.00,0.00,22.6,21.2,00.0,31.5,24.4,10.1,0001.2,0014.20,0005.77,0004.66
2022-11-14 15:46:00,,0826.8,4.99,0.00,22.6,21.2,00.0,31.5,24.4,10.1,0001.6,0014.11,0005.80,0004.64
2022-11-14 15:47:00,,0826.8,5.01,0.00,22.6,21.2,00.0,31.5,24.4,10.2,0001.5,0014.50,0005.77,0004.61
2022-11-14 15:48:00,,0826.7,5.01,0.00,22.6,22.1,00.0,31.5,24.6,10.3,0000.7,0015.02,0005.73,0004.58
2022-11-14 15:49:00,,0826.7,4.98,0.00,22.7,22.7,00.0,31.5,24.8,10.2,0000.9,0016.18,0005.74,0004.56
2022-11-14 15:50:00,,0826.8,5.00,0.00,22.8,22.4,00.0,31.5,24.8,10.1,0001.2,0016.41,0005.71,0004.54
2022-11-14 15:51:00,,0826.8,5.02,0.00,22.8,22.3,00.0,31.5,24.8,10.0,0001.3,0016.20,0005.66,0004.53
2022-11-14 15:52:00,,0826.8,5.00,0.00,22.8,22.1,00.0,31.5,24.8,09.8,0001.0,0015.99,0005.64,0004.53
2022-11-14 15:53:00,,0826.8,4.99,0.00,22.8,21.9,00.0,31.6,24.7,09.7,0001.7,0015.68,0005.61,0004.52
2022-11-14 15:54:00,,0826.8,5.01,0.00,22.8,21.9,00.0,31.6,24.7,09.7,0001.8,0015.75,0005.57,0004.51
2022-11-14 15:55:00,,0826.8,5.01,0.00,22.8,21.8,00.0,31.6,24.7,09.8,0002.0,0016.13,0005.55,0004.52
2022-11-14 15:56:00,,0826.8,5.00,0.00,22.8,21.7,00.0,31.6,24.7,09.8,0002.0,0014.53,0005.55,0004.54
2022-11-14 15:57:00,,0826.8,5.00,0.00,22.8,21.7,00.0,31.6,24.7,09.7,0002.2,0014.05,0005.53,0004.57
2022-11-14 15:58:00,,0826.8,5.00,0.00,22.8,21.6,00.0,31.6,24.7,09.7,0001.4,0013.73,0005.52,0004.60
2022-11-14 15:59:00,,0826.7,5.00,0.00,22.8,21.6,00.0,31.6,24.7,09.9,0001.2,0012.98,0005.54,0004.63
